Regional Weather Roundup
Issued by NWS Goodland, KS

Home | Current Version | Previous Version | Graphics & Text | Print | Product List | Glossary On
Versions: 1 2 3 4 5 6 7 8 9 10 11 12 13 14 15 16 17 18 19 20 21 22 23 24 25 26 27 28 29 30 31 32 33 34 35 36 37 38 39 40 41 42 43 44 45 46 47 48 49 50
000
ASUS43 KGLD 231108
RWRGLD

GOODLAND FORECAST AREA HOURLY WEATHER ROUNDUP
NATIONAL WEATHER SERVICE GOODLAND KS
500 AM MDT SAT MAY 23 2015

...OFFICIAL OBSERVATIONS...

CITY           SKY/WX    TMP DP  RH WIND       PRES   REMARKS
GOODLAND KS    CLOUDY    53  52  96 SE16G25   30.04F
HILL CITY KS   CLOUDY    54  52  93 SE7       30.12R
IMPERIAL NEB   CLOUDY    52  51  97 SE14      30.03R
MCCOOK NEB     CLOUDY    54  52  93 SE8       30.08S
AKRON CO       FOG       50  50 100 E10       30.02R VSB 1/4
BURLINGTON CO  FOG       54  53  97 SE13      30.02R VSB 3/4
LIMON CO       CLOUDY    48  48 100 NE3       30.02R FOG
$$

...UNOFFICIAL OBSERVATIONS...

CITY           SKY/WX    TMP DP  RH WIND       PRES   REMARKS
GOVE KS          N/A     56  32  40 MISG        N/A
LENORA KS        N/A     52  32  46 MISG        N/A
SHARON SPRINGS   N/A     55  54  97 MISG        N/A
KIT CARSON CO    N/A     55  53  92 MISG        N/A
YUMA CO          N/A     54  54 100 E16         N/A
$$


USA.gov is the U.S. government's official web portal to all federal, state and local government web resources and services.